Tracking 21473 objects as of 20-Sep-2020
HD Live streaming from Space Station
objects crossing your sky now

SWAMPSAT-2

Track SWAMPSAT-2 now!
10-day predictions
SWAMPSAT-2 is classified as:


NORAD ID: 45115
Int'l Code: 2019-071E
Perigee: 453.5 km
Apogee: 471.4 km
Inclination: 51.6 °
Period: 93.7 minutes
Semi major axis: 6833 km
RCS: Unknown
Launch date: November 2, 2019
Source: United States (US)
Launch site: WALLOPS ISLAND (WLPIS)

Uplink (MHz):
Downlink (MHz): 145.875/436.350/2432.000
Beacon (MHz):
Mode: 9k6 GMSK/3Mbps QPSK
Call sign: WK2XID
Status: Inactive

aabbcc
Your satellite tracking list
Your tracking list is empty




NASA's NSSDC Master Catalog

Two Line Element Set (TLE):
1 45115U 19071E   20263.73843082 +.00008561 +00000-0 +24360-3 0  9990
2 45115 051.6406 265.2715 0013065 039.2701 320.9228 15.36885768035613
Source of the keplerian elements: AFSPC